Simultaneous Nadir Overpasses (SNOs) Predictions

Prediction of SNOs between GOES-16 and NOAA-19 Satellite Orbit:

Table of predicted SNOs for the next 14.0 days since TLE Epoch: 1/13/2024
Index Date Time (GOES-16) GOES-16 Lat,Lon NOAA-19 Lat,Lon Distance(km) Time Diff (sec)
1 01/14/2024 01:54:08 0.02, -75.20 0.34, -73.88 151.15 80
2 01/15/2024 01:41:57 0.01, -75.21 1.01, -70.92 489.91 80
3 01/16/2024 14:16:29 -0.00, -75.25 0.77, -78.56 378.13 80
4 01/17/2024 14:04:19 -0.01, -75.26 0.05, -75.61 39.16 80
5 01/18/2024 13:49:29 -0.01, -75.27 -0.61, -72.64 300.02 80
6 01/21/2024 02:11:59 0.01, -75.28 -0.46, -77.36 237.12 80
7 01/22/2024 01:57:08 0.02, -75.30 0.23, -74.40 102.45 80
8 01/23/2024 01:44:58 0.02, -75.31 0.92, -71.44 442.16 80
9 01/24/2024 14:19:31 -0.02, -75.36 0.84, -79.09 425.62 80
10 01/25/2024 14:04:41 -0.02, -75.38 0.16, -76.13 85.22 80
11 01/26/2024 13:55:10 -0.00, -75.40 -0.52, -73.16 255.58 80
